Wind_Speed
7 7 7 8 9 9 9 9 9 9 9 9 9 8 8 8 8 9 10 10 10 11 11 10 10 10 10 10 10 11 11 10 10 10 10 10 9 8 8 7 6 5 4 4 3 3 3 3 4 4 5 5 6 6 7 7 7 8 8 9 9 10 10 10 11 11 10 10 10 11 11 12 12 12 13 12 12 11 10 10 11 11 11 11 10
7 8 9 10 10 9 9 8 9 9 9 9 9 9 9 9 10 10 11 11 11 12 12 11 9 9 10 9 9 9 9 10 10 10 10 10 10 9 8 8 7 6 6 5 4 4 4 4 4 5 5 6 6 7 7 8 8 9 9 10 10 10 10 10 10 9 9 8 9 9 9 9 10 10 10 10 10 9 8 9 10 10 10 9 8
8 10 10 10 9 8 8 8 8 8 9 9 8 9 9 10 10 10 11 11 12 13 13 12 10 8 8 8 8 7 8 8 8 9 9 9 10 9 9 9 8 7 7 6 6 5 5 5 5 6 6 7 7 8 8 9 9 10 10 10 10 9 9 9 8 8 7 7 7 8 8 8 7 6 6 6 6 6 7 7 8 9 9 8 8
10 10 10 8 8 8 8 8 8 8 8 8 8 8 8 9 9 10 11 12 12 13 13 12 10 9 8 7 7 6 6 7 6 6 7 8 8 9 9 9 9 8 8 7 7 7 6 6 6 7 7 7 8 8 9 9 9 9 9 9 9 8 8 8 7 7 7 7 7 8 8 8 7 7 6 6 5 5 5 5 6 7 8 8 8
11 10 9 8 8 8 7 7 7 7 7 7 7 8 8 8 9 9 11 12 11 12 12 11 10 9 8 7 7 7 6 6 6 5 5 6 6 7 7 8 8 8 8 7 7 7 7 7 7 8 8 8 8 8 8 9 9 9 8 8 8 7 7 7 7 7 7 7 7 8 9 9 9 9 8 8 7 6 6 6 7 8 8 8 9
10 9 8 8 8 7 7 6 6 7 7 7 7 8 8 9 9 10 11 11 11 11 12 11 9 9 9 8 8 8 7 6 6 5 5 5 5 6 6 6 7 7 7 7 7 7 7 7 7 7 8 8 9 9 9 9 9 9 8 8 8 7 7 7 7 7 7 7 8 8 9 10 10 10 10 9 9 8 8 8 9 10 10 11 11
9 8 8 8 7 6 6 6 6 7 7 7 7 8 8 9 10 11 11 11 10 11 11 11 10 9 9 9 8 8 8 7 7 6 6 6 5 5 5 6 6 5 6 6 6 6 6 7 7 7 8 8 9 9 9 9 9 9 9 8 8 7 7 7 7 7 7 8 8 8 9 10 10 10 11 11 11 10 10 11 11 12 13 14 14
9 8 7 7 6 5 5 5 6 7 7 6 7 7 8 8 9 11 12 12 12 10 10 11 10 9 8 8 8 9 9 7 8 7 6 6 6 6 5 5 5 5 6 6 6 6 6 7 7 8 8 8 8 9 9 9 9 9 8 8 8 8 8 8 8 8 9 9 9 10 10 11 11 12 12 12 12 12 13 13 13 14 14 15 15
8 8 7 6 5 5 4 5 5 6 6 6 7 7 8 8 9 10 11 13 12 9 9 10 9 7 6 7 8 9 9 8 8 8 8 8 8 6 6 6 6 6 6 7 7 7 7 7 7 7 7 8 8 8 8 8 8 8 8 8 9 9 9 10 10 11 11 11 12 12 13 13 13 14 14 14 14 14 14 15 15 15 16 16 16
8 7 6 5 4 4 4 4 5 5 5 6 6 6 8 8 9 9 10 12 11 9 10 9 7 6 5 6 7 8 10 9 8 9 9 9 9 8 8 7 7 7 7 7 8 8 7 7 7 7 7 7 8 8 8 8 8 8 8 8 9 10 11 12 12 13 13 14 14 15 15 16 16 16 16 16 15 15 15 15 16 16 17 17 17
7 6 5 3 3 3 3 4 4 4 5 5 5 6 7 8 9 9 10 11 10 10 10 7 6 5 5 6 7 8 9 9 8 9 9 9 9 9 9 9 9 8 8 8 8 8 8 7 8 7 7 7 7 8 8 9 9 8 8 9 10 11 12 13 14 15 15 16 16 17 17 17 18 18 18 17 17 16 15 15 15 16 17 17 18
7 5 4 3 3 3 3 3 4 4 5 5 6 6 7 8 8 9 11 10 8 10 10 6 4 4 5 6 7 8 7 7 7 8 8 8 8 9 8 8 8 8 8 8 7 8 8 8 8 8 8 8 8 8 8 9 9 10 10 10 10 11 13 14 15 16 16 17 17 17 17 17 17 17 17 17 17 16 15 14 14 15 15 16 16
6 5 4 3 2 2 2 3 3 4 5 6 6 6 7 8 8 9 10 8 7 9 9 5 4 4 5 5 5 5 6 6 6 6 7 7 8 8 7 7 7 6 7 7 7 7 8 9 9 9 9 9 9 9 9 9 10 10 10 10 11 11 12 14 15 16 16 16 16 16 16 16 16 16 16 16 15 15 13 13 13 14 14 15 14
6 5 3 2 2 2 1 2 3 4 4 5 6 6 6 8 9 10 9 7 6 8 8 5 3 3 4 4 3 4 5 6 6 6 6 7 8 7 6 6 5 6 7 7 7 8 8 9 10 10 10 11 11 10 10 9 9 9 10 10 10 11 12 13 14 15 15 15 14 14 14 15 15 15 15 15 14 13 13 11 11 12 13 13 13
6 5 3 3 2 1 1 2 3 4 4 5 6 6 6 8 10 11 8 5 6 8 8 5 3 2 3 2 3 3 3 5 6 7 7 7 7 6 5 5 5 5 7 7 8 9 9 10 11 12 12 12 12 10 9 8 8 8 9 10 11 12 12 13 14 14 13 13 13 13 14 14 14 14 14 14 13 13 12 11 10 10 12 12 12
6 4 3 2 2 1 1 2 2 3 4 4 5 5 6 7 9 11 9 5 5 6 8 6 3 2 1 1 1 2 2 4 6 6 7 8 8 7 5 4 5 5 6 7 8 10 10 11 12 13 13 11 9 8 7 6 7 8 10 11 12 12 12 12 12 12 12 13 13 13 13 13 13 13 13 13 13 13 12 10 9 10 11 11 11
6 4 3 2 2 1 1 2 2 3 3 3 4 5 5 6 7 10 10 8 5 4 6 7 5 3 1 0 0 1 2 4 5 3 6 8 8 8 6 5 5 5 6 7 8 9 10 11 13 14 14 9 4 4 5 5 7 10 11 12 12 11 10 9 10 11 12 12 11 11 11 12 11 11 11 11 12 13 12 11 10 10 10 10 10
6 4 3 2 2 1 1 1 1 2 2 2 3 4 4 5 6 8 9 9 7 4 4 5 6 5 3 2 1 1 2 3 3 2 3 6 7 8 9 8 7 7 7 7 8 8 9 10 12 13 12 7 1 2 3 5 8 11 13 12 10 9 8 8 9 11 11 10 10 11 11 11 11 12 12 11 11 11 11 11 10 11 10 10 9
6 5 4 3 2 2 2 1 1 2 1 1 2 3 3 4 5 6 7 8 8 6 4 4 4 5 4 3 2 2 1 2 2 2 1 3 5 6 7 8 8 7 7 7 8 8 9 11 11 11 10 5 0 1 3 6 9 11 11 10 8 7 7 8 9 9 9 9 10 11 11 11 11 12 12 12 12 11 10 10 10 9 9 9 9
8 7 6 4 3 3 3 2 2 2 1 0 1 2 3 3 4 4 5 7 7 7 6 5 4 4 5 4 3 4 3 3 3 2 2 1 2 3 5 6 6 7 7 7 8 9 10 11 11 10 9 5 3 2 4 7 8 8 8 8 7 6 7 8 8 8 8 9 10 11 11 13 13 14 14 14 13 12 12 11 11 10 9 8 8
9 8 8 6 5 5 4 3 3 2 1 1 1 1 2 2 3 3 4 5 5 6 6 6 5 5 6 5 4 3 3 3 3 3 2 2 2 3 4 4 4 6 8 7 7 8 9 10 10 10 9 8 7 6 6 6 6 7 8 9 8 8 8 8 7 7 9 9 10 12 14 15 15 15 15 14 13 13 13 13 13 13 11 9 9
8 9 9 8 6 6 4 4 4 3 2 1 1 1 1 1 1 2 3 3 3 4 5 5 6 6 6 6 5 3 2 2 2 3 2 2 2 3 4 5 5 5 7 7 6 7 7 8 9 9 9 9 9 7 6 6 7 9 10 10 9 8 9 9 8 8 9 9 11 15 16 17 17 16 15 14 13 13 14 14 14 14 13 10 9
8 8 9 8 8 7 5 5 4 4 3 2 1 1 1 1 1 1 2 2 1 2 3 3 5 5 5 6 5 4 3 2 2 3 2 2 3 3 4 5 5 5 7 6 5 5 7 7 7 8 9 8 8 7 6 7 8 9 10 9 8 8 9 10 10 9 8 10 12 15 17 19 19 19 19 18 17 17 17 17 17 16 14 11 10
9 9 9 9 9 8 6 6 5 5 4 3 3 2 1 1 1 1 1 1 1 2 2 2 3 3 3 4 4 3 3 2 2 2 2 2 2 4 5 5 5 6 6 6 5 4 5 6 6 8 9 8 8 7 7 8 9 9 9 9 8 8 10 11 9 8 8 10 13 15 17 20 21 22 22 22 22 21 21 20 19 17 14 12 11
10 10 10 10 10 9 7 7 6 6 6 5 4 4 3 2 1 1 1 1 1 2 2 2 2 3 3 3 3 3 2 3 3 3 3 2 2 4 5 5 5 6 5 6 5 4 4 6 6 8 9 9 9 10 10 10 10 11 9 8 8 8 9 8 8 9 10 12 14 16 18 20 21 22 22 22 22 21 20 19 19 17 14 12 11
10 11 11 10 10 10 8 7 7 6 7 7 6 5 4 4 3 2 2 2 2 2 2 2 2 2 3 3 2 2 2 3 3 3 3 3 3 4 4 5 6 6 4 4 5 4 5 6 5 7 10 10 11 13 12 10 11 11 9 8 8 8 8 9 10 11 13 14 16 17 18 19 20 21 21 21 20 20 19 18 17 16 13 11 10
11 12 12 11 11 11 10 9 8 7 7 8 7 6 6 5 5 4 4 4 3 3 3 2 2 3 3 3 3 2 2 2 2 3 3 3 4 4 4 4 5 5 5 5 5 4 5 6 4 6 9 10 12 14 13 11 10 10 9 9 10 10 10 11 12 13 14 15 16 17 18 18 18 18 18 18 18 18 17 16 15 14 12 10 9
11 11 11 12 13 12 11 10 9 8 7 8 9 8 8 7 7 6 5 5 5 4 3 3 3 4 4 4 3 3 2 2 3 3 3 3 3 3 4 4 4 4 5 4 5 4 4 5 5 5 7 9 11 12 12 10 9 8 9 9 10 12 12 13 13 14 14 14 15 17 18 17 16 15 14 15 15 15 15 14 14 13 12 11 10
11 10 11 12 13 12 11 10 9 9 8 9 10 10 9 8 8 7 6 5 6 5 5 5 5 5 5 5 4 5 4 4 4 4 3 4 4 3 4 4 3 3 4 3 4 4 4 5 5 5 7 8 9 10 10 9 9 7 7 9 10 12 13 13 13 13 13 14 15 17 17 16 14 12 11 12 12 12 12 13 13 13 13 13 12
13 12 12 12 13 13 13 11 10 10 9 9 10 10 10 9 9 8 7 6 7 7 7 7 6 6 6 5 5 5 5 5 5 5 4 5 5 4 4 3 3 4 4 4 4 4 5 6 6 6 7 7 8 8 8 9 9 8 7 9 10 12 14 13 13 14 13 14 15 16 16 15 13 10 9 10 11 11 11 12 12 13 14 14 14
14 14 13 12 13 13 13 12 11 10 10 10 10 11 10 9 9 8 8 8 8 8 8 8 7 6 6 6 6 6 5 6 6 5 5 5 5 4 4 4 4 4 5 4 4 4 5 7 7 7 7 7 8 8 8 9 10 11 9 10 12 14 14 13 13 15 14 13 15 16 15 13 11 9 9 10 11 11 11 12 12 13 13 14 14
14 14 14 13 13 12 11 11 11 10 10 9 10 11 11 11 10 9 9 9 10 9 8 8 7 7 7 7 6 6 6 6 6 7 6 6 5 5 5 5 5 5 5 5 5 5 6 7 8 7 7 8 8 9 10 10 10 12 12 12 14 14 12 12 13 15 15 14 14 15 14 12 10 9 10 11 12 12 12 13 13 13 13 13 13
14 13 14 13 13 12 11 11 11 11 11 11 11 12 13 13 13 12 11 11 11 10 9 9 8 8 8 8 7 7 7 7 7 8 8 7 5 5 5 5 5 5 5 5 6 7 7 7 8 8 8 9 9 9 11 11 11 14 13 11 13 12 10 12 12 13 15 14 14 15 13 10 10 10 11 11 12 13 13 14 14 14 14 14 13
14 14 13 13 13 13 12 12 12 12 13 13 12 12 14 14 13 12 11 11 11 10 10 10 9 8 8 8 8 8 7 7 7 7 7 6 6 6 5 5 6 5 5 6 6 7 8 8 8 9 8 9 9 8 11 12 13 15 13 11 11 11 11 13 11 11 14 14 14 15 12 10 11 11 11 11 11 12 13 14 14 14 14 14 13
13 14 13 12 13 14 13 13 14 14 14 14 13 14 15 14 13 12 11 11 10 10 10 10 9 9 8 9 8 8 7 7 7 7 7 6 6 7 7 7 7 7 7 7 6 6 8 9 9 9 8 8 9 8 10 12 12 12 13 12 11 10 11 13 12 11 13 14 15 14 11 11 11 10 10 10 11 12 13 13 14 13 14 13 13
12 12 13 12 13 14 14 14 15 15 15 15 15 14 15 14 14 13 12 12 11 11 10 10 10 9 9 9 9 8 8 8 8 8 7 7 7 7 8 8 9 8 8 9 9 7 8 9 9 10 11 10 9 9 10 10 10 10 12 13 12 11 12 13 12 12 13 14 16 14 12 11 11 9 9 10 10 12 12 13 14 13 14 14 13
11 11 12 12 13 14 14 14 14 15 15 15 15 15 14 14 14 13 12 12 12 11 11 11 11 10 10 10 10 9 9 9 9 8 8 8 8 8 9 9 8 9 9 10 11 9 9 9 10 11 12 11 10 9 9 9 9 9 11 12 11 11 12 13 12 11 11 12 13 13 12 12 11 8 9 10 11 12 13 13 15 15 15 15 14
12 11 11 12 12 14 14 14 14 15 15 15 15 15 14 13 14 13 13 13 12 12 12 12 11 11 11 10 10 10 10 10 10 9 9 9 9 9 9 9 8 9 10 10 11 11 10 10 10 10 10 9 9 9 9 10 11 9 10 11 10 10 11 13 13 11 10 10 11 11 11 11 10 9 10 12 12 13 14 14 15 16 16 16 16
12 12 12 12 12 13 14 14 14 15 15 15 15 16 15 14 14 14 13 13 12 12 12 12 12 12 11 11 11 11 11 11 11 10 10 10 10 9 9 9 10 10 9 9 10 11 10 10 10 10 9 8 9 9 10 11 10 7 8 11 12 12 12 14 14 12 11 11 11 10 10 10 10 10 12 14 14 14 15 15 15 17 18 17 16
13 13 12 12 12 13 13 14 14 14 15 15 15 16 16 15 14 13 13 13 13 13 13 13 13 12 12 11 11 11 11 12 12 12 11 11 10 10 10 11 12 12 10 8 9 9 9 10 10 9 9 9 9 9 9 9 8 6 8 10 13 14 13 13 13 12 12 12 11 9 9 9 9 9 11 14 17 17 16 16 16 17 18 17 16
13 13 12 12 12 12 13 14 15 15 14 15 16 16 16 15 14 13 13 13 13 13 13 13 13 13 13 13 12 11 11 12 13 13 12 12 12 11 10 12 13 12 10 8 7 7 7 8 9 9 9 9 9 9 8 8 8 9 10 12 13 13 13 12 12 10 11 12 11 9 8 9 9 8 9 12 17 19 18 18 17 16 15 15 14
14 14 14 13 13 12 13 14 15 15 14 15 16 16 15 15 14 13 14 15 16 15 15 15 14 14 14 13 13 13 14 14 14 14 13 13 12 11 11 12 11 10 8 7 6 6 6 7 8 9 9 10 10 9 8 8 9 9 11 12 13 13 12 12 10 9 10 13 13 10 9 10 9 8 8 11 14 18 18 17 16 14 13 12 12
15 16 16 15 14 13 13 13 14 14 14 15 16 16 15 15 16 15 15 16 17 17 16 15 14 14 13 13 13 13 14 14 13 14 14 13 13 13 13 12 10 9 8 7 6 6 6 7 9 10 11 11 10 9 9 10 9 10 11 12 12 12 11 11 11 10 11 14 14 11 8 9 9 7 8 9 11 15 16 14 13 12 11 11 11
15 15 16 16 16 15 14 14 14 14 14 15 16 15 14 15 16 16 15 15 15 16 17 16 15 14 13 13 13 12 12 13 14 14 14 13 14 13 13 12 11 10 9 9 8 7 7 8 10 11 12 11 9 8 9 9 8 11 12 12 11 10 11 12 11 10 11 13 13 11 8 9 10 7 7 8 9 12 13 12 11 11 10 10 10
15 15 15 16 16 17 16 15 16 15 14 16 17 16 15 16 16 17 17 16 16 17 19 19 18 17 15 15 14 13 13 15 16 16 15 15 14 14 13 12 12 12 11 11 11 10 9 9 10 11 10 9 10 9 8 7 9 12 12 10 10 10 10 11 10 9 10 10 11 10 9 9 10 8 5 6 7 10 12 10 10 10 9 9 10
18 17 16 15 16 17 17 17 18 17 15 17 19 19 18 18 18 19 19 18 18 18 17 18 19 18 17 16 15 14 14 16 18 17 16 16 16 15 13 11 10 11 11 10 11 12 10 8 8 9 8 7 8 8 7 8 10 11 10 8 8 9 9 9 9 7 7 8 9 9 8 8 9 8 5 4 5 8 10 9 8 9 9 9 9
18 18 18 17 17 19 19 19 18 15 15 19 21 20 20 20 20 19 19 18 19 18 17 18 19 19 18 17 16 15 15 16 18 18 17 18 17 15 13 10 8 8 10 10 10 10 9 7 5 6 6 5 6 7 7 8 9 9 7 5 5 6 7 8 8 5 4 7 9 8 6 7 8 7 5 3 4 6 7 8 8 9 9 10 10
15 15 15 13 14 15 16 18 18 15 17 20 20 19 20 20 20 18 17 18 20 20 19 19 19 20 19 18 18 17 17 18 20 19 19 19 18 15 12 10 8 7 9 11 11 9 9 8 7 6 6 7 8 7 6 5 5 5 4 4 4 6 7 7 8 6 4 6 9 9 7 6 6 7 6 2 3 4 5 5 6 7 8 9 10
10 11 10 8 9 10 11 12 13 14 16 19 19 19 20 19 18 17 17 17 18 18 17 16 17 18 17 18 19 18 18 20 21 19 19 20 19 16 13 11 9 7 5 7 8 7 7 7 7 6 6 5 3 2 1 2 3 3 2 3 4 6 6 6 7 8 4 4 9 11 8 6 6 8 7 3 2 3 4 4 4 5 6 7 8
10 8 5 5 8 10 9 10 10 11 13 15 16 17 18 18 17 16 15 13 13 13 13 13 13 12 12 15 16 15 15 18 19 18 19 20 20 18 15 12 11 10 7 6 6 5 4 4 4 4 4 4 4 3 2 3 4 4 4 4 5 5 6 5 6 9 5 4 10 13 9 6 7 7 9 8 3 3 4 4 3 4 5 7 8
12 9 6 6 7 6 6 6 7 6 7 9 11 12 14 15 15 14 11 10 10 10 10 9 9 7 7 11 12 11 12 14 15 16 18 18 18 15 13 13 13 12 11 11 9 9 8 9 10 11 10 8 6 4 3 4 4 6 7 7 6 5 5 4 5 7 5 4 10 12 8 7 7 7 8 8 5 1 3 4 4 4 5 6 7
Wind_Direction
130 127 120 115 111 105 96 86 79 74 68 63 63 61 52 43 37 31 25 21 16 9 1 355 347 339 338 345 353 2 13 22 27 32 32 31 30 30 35 37 35 38 39 32 22 8 351 329 326 335 323 311 309 306 305 307 307 310 310 307 308 308 307 306 303 304 305 304 303 301 303 303 300 298 299 300 302 304 303 301 304 305 301 299 300
134 128 121 118 114 105 95 85 76 72 66 59 60 56 47 39 32 27 21 17 13 6 359 356 350 340 337 344 354 3 16 27 33 36 37 37 38 39 42 43 42 43 46 47 41 32 21 3 350 346 335 327 322 319 320 321 318 315 314 313 312 310 307 307 306 307 309 309 310 310 311 307 302 298 297 298 298 295 292 295 299 299 299 303 308
133 127 124 123 116 104 93 82 68 66 64 57 54 50 43 36 29 22 15 10 8 3 358 356 353 347 341 345 356 5 17 26 31 32 33 36 40 42 43 43 42 41 43 44 43 37 27 14 4 356 349 344 339 336 336 333 331 329 326 325 322 318 317 318 319 321 323 325 326 328 330 328 326 322 317 312 302 293 291 293 296 296 297 304 308
133 129 128 124 114 102 90 76 64 63 63 57 52 46 40 33 24 16 7 2 3 0 357 356 354 350 347 348 355 1 10 22 27 25 31 36 40 43 40 38 36 35 36 34 33 29 23 17 10 6 0 356 352 347 345 343 342 340 338 337 335 335 335 335 337 339 341 343 345 349 351 350 351 352 349 342 326 307 299 295 292 291 293 299 300
135 133 130 123 112 99 85 71 65 65 61 56 50 42 35 25 15 9 1 358 0 360 358 358 356 353 351 351 354 356 1 12 16 12 19 24 30 35 34 32 29 28 29 29 26 19 15 12 8 6 3 1 359 356 354 352 350 349 347 346 346 347 346 346 348 351 354 354 354 359 1 359 357 356 354 351 343 328 314 303 296 295 294 297 299
139 137 130 122 110 98 84 74 69 66 59 54 46 37 28 17 9 3 359 359 1 0 359 357 359 1 357 355 355 357 358 360 357 357 1 0 7 17 21 22 23 23 22 22 20 14 9 5 3 1 359 359 359 357 357 356 356 356 354 353 353 353 353 353 353 354 356 356 355 357 358 355 351 349 347 344 341 334 323 313 305 302 301 303 306
145 139 130 122 109 94 86 79 73 65 57 52 43 33 24 15 7 0 358 0 360 360 359 356 360 3 359 358 359 0 2 2 2 1 357 358 1 5 11 13 13 14 13 11 6 2 359 357 357 357 357 357 356 356 356 358 359 358 356 355 354 353 351 350 349 349 351 350 349 348 347 345 342 339 337 335 332 328 323 317 312 309 307 307 308
148 140 130 123 109 93 86 83 74 64 56 50 40 29 22 15 6 359 359 359 357 358 358 355 358 359 358 359 1 5 8 10 16 15 8 8 6 0 3 3 1 2 4 3 358 352 350 350 351 353 356 356 356 356 355 356 357 355 353 350 348 347 344 342 342 341 341 340 339 338 336 333 332 330 328 327 326 323 320 317 314 312 311 310 309
150 143 135 125 108 92 85 81 71 60 54 46 36 24 18 11 3 2 1 357 356 357 356 355 356 356 359 359 359 6 11 13 20 21 20 20 16 8 2 355 353 355 356 355 353 350 347 346 346 348 351 352 353 352 351 351 351 349 345 342 340 339 337 336 336 336 335 333 332 331 329 327 325 323 322 321 320 320 319 316 314 312 310 309 309
152 148 142 129 109 100 89 78 67 56 48 41 31 21 15 8 3 4 3 359 357 356 354 354 356 353 356 357 354 357 2 8 18 21 20 17 15 14 10 4 358 355 354 351 350 348 344 343 343 344 345 345 345 345 344 343 340 339 337 334 333 332 332 332 331 332 332 331 330 328 326 324 322 320 319 317 316 316 316 315 313 311 309 308 309
156 154 151 136 115 109 91 70 60 50 41 37 30 19 15 11 6 7 8 5 4 3 359 357 359 351 348 348 343 345 352 0 11 14 13 8 6 9 6 3 3 2 1 357 351 346 341 339 338 339 340 340 339 338 339 339 338 335 331 327 328 328 329 330 330 331 332 331 331 330 328 326 323 320 318 316 315 314 315 315 314 311 309 306 307
160 161 159 145 127 117 89 64 53 44 38 34 29 20 18 17 12 10 10 12 15 13 9 13 16 352 341 341 336 340 351 359 3 1 359 357 356 0 357 354 359 3 2 357 350 341 334 331 331 332 334 335 337 337 337 338 340 340 336 332 331 331 332 332 333 334 334 335 334 333 331 329 326 323 320 317 315 313 314 315 316 313 309 305 304
162 164 166 155 139 124 85 56 46 42 39 33 29 25 23 23 22 18 13 17 23 15 17 33 39 6 348 347 348 354 6 10 5 353 346 344 347 353 353 348 351 353 351 348 344 338 330 324 322 323 327 329 333 334 336 340 343 345 343 341 338 338 337 337 338 338 338 338 336 336 334 331 328 325 323 320 316 313 312 314 316 315 311 306 303
165 169 171 163 151 140 82 47 41 41 39 30 26 28 28 29 32 29 19 20 26 21 26 36 37 21 353 345 2 18 24 21 13 6 357 349 345 344 343 340 334 333 336 338 338 335 328 322 318 317 319 319 321 324 332 339 347 350 347 345 343 340 339 338 339 338 338 338 337 336 333 329 327 324 322 319 316 312 308 309 313 315 312 307 305
170 172 173 169 171 169 82 43 37 33 28 21 23 27 28 31 35 35 28 24 32 30 31 34 36 29 347 346 14 10 28 20 8 14 12 5 360 349 339 339 334 327 332 335 334 333 327 323 319 316 314 313 311 312 322 336 346 349 347 345 342 339 337 335 336 338 340 340 335 331 328 324 321 318 316 314 313 310 307 306 307 313 312 307 307
176 175 173 171 171 164 86 39 25 16 9 12 22 25 25 28 36 40 36 30 35 36 39 44 55 46 344 3 27 342 26 5 352 8 18 18 20 10 356 354 347 338 343 346 340 337 332 327 325 324 326 326 313 302 311 330 339 342 342 341 338 335 333 335 340 343 341 335 330 329 329 327 323 318 313 309 308 307 305 303 301 306 308 305 304
184 182 182 170 160 148 50 25 7 356 350 2 18 23 25 29 38 42 39 36 38 41 46 52 63 71 59 69 15 14 32 356 343 10 23 23 28 26 27 29 18 6 5 4 355 347 340 333 330 330 337 342 322 291 305 323 332 335 334 331 331 330 333 342 347 341 334 332 337 344 347 348 350 346 338 326 315 308 302 300 299 299 301 299 299
196 198 199 187 179 194 344 4 359 344 345 4 21 25 24 29 37 41 40 40 44 46 45 51 60 65 65 52 29 37 17 349 341 359 24 33 36 40 48 47 44 39 29 20 12 5 352 342 337 336 341 350 320 256 303 323 329 329 327 326 327 332 343 351 346 337 337 348 358 360 360 5 11 10 2 352 340 324 310 305 305 303 299 295 296
210 214 215 213 210 240 301 312 316 325 341 18 22 22 21 27 35 40 41 42 46 46 37 39 48 49 54 60 64 80 54 8 356 337 359 48 45 46 50 48 48 44 35 24 16 9 357 349 348 347 350 360 114 232 313 330 330 331 334 338 342 349 356 351 343 344 352 3 5 2 4 7 7 3 358 352 346 337 324 315 312 311 306 297 291
216 220 222 226 234 254 277 275 274 288 287 31 15 13 19 24 27 29 34 39 43 43 39 38 40 43 56 67 75 81 72 53 40 15 339 356 33 40 34 33 39 33 25 18 11 7 1 358 3 4 6 22 52 24 349 343 342 350 360 1 358 355 352 346 344 351 359 2 2 3 3 360 355 351 348 345 342 338 331 324 320 318 313 305 294
215 220 225 233 241 251 260 254 255 259 234 239 320 356 15 25 23 17 21 31 37 38 39 38 37 43 52 62 70 74 72 65 59 47 21 356 357 12 12 9 21 25 19 13 11 12 11 13 19 24 30 42 51 43 15 359 1 8 7 1 353 346 345 345 345 353 359 359 360 1 358 353 349 346 343 342 342 339 335 332 330 330 324 313 302
216 221 225 231 235 241 246 244 245 239 229 239 270 319 349 2 4 358 1 14 28 28 29 34 38 42 46 52 55 44 40 50 45 38 36 22 340 341 1 357 355 12 13 8 11 16 19 21 25 30 35 38 43 42 22 1 357 357 354 351 347 345 348 352 352 355 0 358 358 359 356 353 348 343 339 338 338 336 332 331 333 337 336 324 312
217 221 223 225 226 229 235 239 238 233 232 241 256 293 322 305 291 312 343 357 11 12 9 16 27 34 36 39 39 32 29 30 27 23 11 3 339 329 349 351 342 351 2 5 11 16 19 21 23 28 31 30 29 24 10 359 354 351 351 348 345 346 349 354 355 356 360 358 355 354 352 350 346 340 335 331 330 330 328 326 324 326 331 331 327
219 221 221 220 220 222 232 237 235 235 237 242 248 256 267 273 276 276 307 335 341 349 353 355 7 17 18 18 16 16 22 9 1 3 350 358 339 325 345 349 337 344 358 3 7 11 17 20 26 29 28 28 27 21 17 12 5 1 2 356 346 345 347 351 355 357 360 357 353 349 347 346 343 337 333 329 329 331 331 328 324 319 318 324 329
222 222 220 217 218 223 230 234 236 242 244 241 245 250 246 242 250 255 272 301 326 327 330 334 348 2 1 357 351 345 356 355 347 342 337 341 316 320 341 340 328 340 356 2 360 4 17 21 28 31 29 32 30 25 24 19 10 7 7 1 353 352 355 0 5 6 4 358 352 349 347 344 341 338 335 334 337 340 340 337 334 329 324 323 325
226 224 221 216 219 224 228 233 238 244 247 242 240 244 242 240 246 249 262 280 297 307 310 311 320 339 340 337 332 327 343 357 353 347 335 325 320 325 334 326 319 328 343 357 357 360 9 10 20 28 28 33 26 20 21 19 11 8 11 19 22 22 23 20 15 10 4 358 353 350 348 345 342 340 340 342 346 348 347 346 347 345 341 336 332
230 229 226 221 223 227 231 238 242 248 251 242 237 241 240 240 244 247 255 266 275 283 289 290 290 298 303 309 309 304 322 329 324 332 331 327 331 327 323 319 318 322 331 347 354 360 3 355 6 22 20 25 24 17 19 22 17 18 33 46 44 34 26 18 11 7 3 358 354 351 349 347 345 345 346 348 352 352 351 353 357 357 355 349 342
232 232 231 228 227 231 237 243 245 252 256 246 239 240 242 242 243 247 251 255 260 262 261 267 270 274 277 278 277 270 269 276 282 294 308 322 329 322 315 315 319 324 327 338 345 353 358 348 357 13 8 14 21 16 18 22 19 29 44 42 32 21 12 7 5 4 3 359 354 352 351 349 349 350 350 351 355 354 355 1 3 3 0 353 342
232 234 237 236 233 234 239 242 245 251 255 250 243 241 245 249 247 250 250 250 257 258 256 262 265 270 274 273 269 262 257 259 264 272 292 310 312 305 305 300 297 307 316 326 328 331 337 338 344 355 357 4 12 11 16 17 12 21 26 16 13 8 1 360 1 2 3 358 354 353 352 351 352 352 351 353 358 357 358 5 9 9 8 4 356
234 238 244 245 240 239 242 244 249 252 251 249 243 241 247 253 254 256 256 259 266 265 264 267 270 273 276 278 276 269 265 268 269 272 290 304 299 289 287 281 270 275 286 302 309 315 322 327 332 339 346 353 357 359 5 4 1 2 359 354 354 352 352 357 359 360 1 356 353 354 353 353 354 350 347 349 355 359 359 2 7 10 11 11 9
239 243 247 246 243 242 245 247 250 252 252 248 243 242 249 256 258 259 261 269 274 273 271 271 272 275 277 281 280 276 276 278 278 280 288 298 295 285 280 278 275 270 268 276 288 304 313 317 326 332 336 343 348 350 351 349 348 349 346 340 338 341 348 355 357 358 360 355 351 354 354 354 354 351 347 346 348 353 356 357 0 3 6 8 8
244 247 248 245 241 241 244 245 246 248 250 248 243 244 251 257 259 259 263 272 275 272 271 270 270 273 275 280 282 279 280 279 280 283 284 288 288 284 283 279 277 274 263 262 275 296 306 311 321 328 333 338 339 341 343 341 341 344 344 338 338 345 349 350 352 354 357 354 350 353 354 351 350 350 347 346 345 347 349 351 353 354 357 359 0
249 249 249 247 245 245 244 245 245 247 250 248 245 249 257 261 262 261 264 271 273 268 265 265 268 267 268 277 282 282 282 278 277 279 280 281 280 282 283 278 275 274 270 266 272 290 301 307 317 323 329 333 333 335 340 340 339 342 344 340 343 349 349 349 349 347 349 353 352 352 354 349 346 346 344 344 345 345 347 348 348 349 350 351 352
252 252 250 246 247 248 247 247 248 248 250 249 247 252 260 263 262 259 260 266 268 265 261 263 265 264 265 272 279 283 281 276 276 278 279 279 280 284 285 283 284 282 288 287 277 287 298 302 313 318 320 328 331 332 336 339 340 344 347 346 346 348 347 348 348 341 341 348 354 355 355 350 347 346 343 343 345 347 348 349 348 348 349 349 350
250 253 250 245 248 252 252 252 253 251 251 249 248 254 259 261 258 254 254 258 262 261 260 261 263 263 265 268 274 280 280 278 279 280 280 280 281 287 288 288 290 287 292 299 288 285 297 303 309 314 315 321 325 326 333 338 341 344 348 347 347 347 346 346 345 339 338 346 356 1 359 355 354 352 347 347 351 352 353 353 352 353 354 355 358
244 249 251 247 248 254 254 253 253 252 251 250 250 253 256 256 254 253 253 255 258 259 258 260 263 264 266 267 270 275 280 283 284 282 280 279 280 286 288 289 290 287 286 294 293 284 288 296 300 306 310 312 313 318 327 335 336 338 342 344 343 343 344 345 343 339 341 348 357 1 3 2 0 359 359 1 2 1 1 2 0 1 3 4 7
239 242 247 247 247 249 249 248 250 253 254 254 254 254 254 254 254 254 255 257 257 257 257 259 261 263 265 266 266 268 276 282 283 281 279 281 284 287 288 289 289 289 285 285 287 282 277 282 290 298 305 304 305 310 318 328 331 330 333 338 338 338 341 345 345 343 345 349 354 359 6 8 5 6 12 15 14 9 6 7 7 8 8 8 9
238 238 241 243 245 247 247 246 248 253 257 258 258 257 256 255 257 257 257 258 258 257 257 257 258 261 263 265 264 265 270 275 278 279 281 286 288 286 288 293 296 299 294 285 284 282 276 276 280 287 292 294 296 299 307 322 327 326 329 335 337 339 341 342 344 348 349 349 353 359 9 14 12 18 23 21 19 13 8 8 9 8 7 6 7
237 238 238 241 245 248 249 249 249 254 259 260 259 260 259 257 258 259 258 257 257 257 258 258 258 260 260 263 264 265 267 269 271 276 282 286 287 282 286 296 302 305 299 286 283 280 274 272 277 280 282 287 293 292 300 316 321 322 333 337 336 339 342 341 341 347 351 351 351 357 11 17 15 21 25 20 19 16 10 9 9 7 5 3 3
238 240 240 243 246 247 247 249 250 254 260 262 260 260 262 261 258 258 257 256 255 257 260 261 261 260 260 262 265 265 266 268 271 275 280 285 287 285 287 294 301 303 297 285 283 280 276 276 278 280 282 285 289 289 297 312 318 322 332 333 331 336 341 339 338 343 351 352 350 356 13 16 10 18 25 21 21 21 15 12 11 7 4 2 2
239 241 243 246 248 247 248 252 255 256 257 259 260 261 263 264 261 257 255 255 256 259 263 264 261 259 259 261 264 266 271 277 279 277 276 281 283 283 286 292 296 298 295 287 284 281 280 282 281 283 285 286 289 293 300 314 319 321 327 331 333 335 338 336 335 343 352 350 347 356 15 16 9 17 27 23 21 21 18 15 14 11 8 6 6
239 242 247 250 249 248 250 252 254 255 253 255 261 262 261 262 263 259 258 261 263 264 266 266 264 261 259 260 263 269 278 284 286 281 276 277 278 276 279 283 285 290 291 286 283 282 279 282 286 290 291 293 299 304 306 311 315 320 328 333 332 331 335 336 334 343 352 349 346 353 10 16 10 17 32 31 24 22 21 19 17 14 13 14 15
245 250 253 253 253 252 253 252 252 252 251 257 264 264 259 260 263 262 263 268 270 269 268 265 263 263 263 263 264 270 277 282 285 285 279 272 271 273 273 273 275 282 285 283 284 283 280 283 289 293 295 298 302 304 305 309 315 322 325 327 327 328 334 334 333 343 350 348 348 347 358 14 13 17 41 47 34 26 24 20 16 14 17 22 26
250 253 255 256 257 259 258 256 256 254 255 264 270 267 261 261 262 262 263 265 266 267 267 266 265 264 264 266 267 268 271 275 281 285 281 274 271 270 269 270 274 279 281 284 287 287 285 288 291 293 295 298 298 301 309 313 315 317 318 320 323 328 332 333 338 347 344 344 349 343 345 11 12 9 44 62 49 35 28 21 16 17 21 27 31
251 253 255 256 258 261 261 259 260 261 261 268 272 270 265 262 260 260 260 258 261 264 265 265 266 266 266 267 268 268 270 276 281 281 278 274 270 267 266 268 273 277 278 281 283 283 284 286 288 291 295 297 298 303 311 312 310 313 318 322 328 334 337 336 340 341 332 340 355 343 334 0 5 359 33 65 57 41 33 26 25 25 27 31 33
256 257 258 257 259 264 266 265 266 267 264 267 271 272 270 266 262 261 260 261 264 264 260 260 263 266 267 268 270 269 270 276 280 279 273 268 264 261 261 262 266 273 277 280 283 283 280 278 284 290 293 294 297 302 307 310 313 317 321 325 332 337 335 329 328 324 316 337 358 346 330 351 1 353 10 55 63 49 42 39 40 39 35 35 37
258 261 262 262 264 268 269 268 268 267 264 268 273 273 270 268 265 262 261 261 262 261 258 261 266 269 272 273 273 273 271 273 277 276 268 260 257 255 253 251 249 257 265 270 275 277 273 266 271 283 283 286 295 303 311 317 322 326 325 327 334 334 328 326 326 321 313 335 352 353 332 342 360 356 358 44 75 63 53 47 44 45 42 37 38
257 259 261 263 267 271 273 271 268 264 264 269 271 269 267 266 264 260 256 254 254 256 258 263 267 271 274 274 275 276 274 272 274 273 264 256 252 249 249 248 240 238 256 265 264 264 263 260 259 268 277 288 299 308 316 321 325 332 330 331 341 335 331 333 328 323 328 345 356 359 336 325 356 358 345 24 100 83 68 55 40 40 42 39 37
261 254 255 259 262 265 274 277 270 263 265 269 268 265 264 263 262 259 256 254 254 255 257 261 265 268 271 272 272 273 272 270 270 268 259 250 245 243 245 246 236 225 238 256 257 260 266 267 267 269 271 277 285 290 330 10 6 9 355 341 349 342 333 331 325 322 335 15 9 359 337 321 346 352 338 319 170 122 90 76 51 36 35 37 37
271 265 251 251 260 263 268 272 267 261 263 266 265 265 264 262 260 258 256 256 256 257 258 261 264 267 267 267 267 264 261 263 262 257 250 244 241 241 241 241 237 230 216 212 226 239 239 234 224 203 185 164 150 140 105 59 16 21 35 22 9 354 337 333 326 319 318 28 16 0 341 330 347 350 340 323 271 158 95 65 52 40 31 35 39
272 277 266 252 254 259 257 254 253 253 261 268 270 270 269 267 262 258 256 257 257 257 259 262 268 268 256 259 266 264 261 262 257 249 243 240 240 242 241 240 241 233 212 197 200 198 178 164 157 147 140 136 131 112 78 55 26 32 47 41 27 12 351 339 333 323 315 5 13 3 345 333 343 348 345 334 306 199 83 47 37 37 32 33 37
Height
872 872 873 873 874 874 874 875 875 875 876 876 876 876 876 876 876 876 876 875 875 874 874 873 873 873 872 872 872 872 873 873 873 873 873 873 872 872 872 872 872 872 872 872 872 872 872 872 872 872 871 871 871 871 870 870 869 869 868 868 867 866 865 864 863 862 862 862 861 860 859 858 857 856 856 855 854 853 852 851 850 849 849 848 848
872 872 873 874 874 875 875 875 876 876 876 876 877 877 877 877 876 876 876 876 875 875 874 873 873 873 873 872 873 873 873 873 874 873 873 873 873 873 872 872 872 872 872 872 872 872 872 872 872 871 871 871 871 870 870 869 869 868 868 867 867 866 865 864 863 862 861 861 860 859 859 858 856 855 855 854 853 853 852 851 850 849 848 848 847
872 873 873 874 875 875 875 876 876 876 877 877 877 877 877 877 877 877 876 876 875 874 874 873 873 873 873 873 873 873 874 874 874 874 874 874 873 873 873 873 873 873 872 872 872 872 872 872 872 872 871 871 871 870 870 869 869 868 867 867 866 865 864 863 862 862 861 860 859 859 858 857 856 855 854 853 853 852 851 851 850 849 848 847 846
873 873 874 875 875 875 876 876 877 877 877 877 877 877 877 877 877 877 876 876 875 875 874 873 873 873 873 873 874 874 874 874 875 874 874 874 873 873 873 873 873 873 873 873 873 872 872 872 872 872 871 871 870 870 869 869 868 868 867 866 866 865 864 863 862 862 861 860 859 858 857 857 855 855 854 853 852 852 851 850 850 849 848 847 845
873 874 875 875 875 876 876 876 877 877 877 877 877 877 877 878 878 877 877 876 875 875 874 874 873 873 873 874 874 874 875 874 874 874 874 874 874 874 874 874 874 874 873 873 873 873 872 872 872 872 871 871 870 870 869 869 868 867 867 866 866 865 864 863 862 862 861 860 859 858 857 856 855 854 853 852 851 851 850 850 849 848 847 846 845
874 874 875 876 876 876 876 877 877 877 877 877 877 878 878 878 878 877 877 876 876 875 874 874 874 874 874 874 874 874 874 874 874 874 874 874 874 874 874 874 874 874 874 873 873 873 872 872 872 871 871 871 870 870 869 868 868 867 867 866 866 865 864 863 862 862 861 860 859 858 857 855 854 854 852 851 851 850 849 849 848 847 846 845 844
874 875 876 876 876 876 877 877 877 877 877 877 877 878 878 878 878 877 877 876 876 875 875 874 874 874 874 874 874 874 874 874 874 874 874 874 874 874 874 874 874 874 874 873 873 873 872 872 872 871 871 871 870 869 869 868 868 867 867 866 865 865 864 863 862 861 860 859 858 857 856 855 854 853 852 850 850 849 848 847 847 846 845 843 842
875 875 876 876 876 877 877 877 877 877 877 878 878 878 878 878 878 877 877 877 876 876 875 875 875 875 875 875 875 874 874 874 873 874 874 874 874 874 874 874 874 874 874 874 873 873 872 872 872 871 871 870 870 869 869 868 868 867 866 866 865 864 863 863 862 861 860 859 858 857 855 854 853 852 851 849 848 848 847 846 845 844 843 842 841
875 875 876 876 877 877 877 877 877 877 878 878 878 878 879 879 878 878 877 877 876 876 876 875 875 875 875 875 875 874 874 874 874 874 873 873 873 874 874 874 874 874 873 873 873 873 873 872 872 871 871 870 869 869 868 868 867 867 866 865 865 864 863 862 861 860 859 858 857 856 854 853 852 851 849 848 847 846 845 844 843 843 841 840 839
875 876 876 876 877 877 877 878 878 878 878 878 879 879 879 879 878 878 878 877 877 877 876 876 875 875 875 875 875 875 874 874 874 873 873 873 873 873 873 873 873 873 873 873 873 873 873 872 872 871 871 870 869 869 868 867 867 866 866 865 864 863 862 861 860 859 858 857 856 855 853 852 851 849 848 847 845 845 844 843 842 841 840 839 838
875 876 876 877 877 878 878 878 878 878 878 879 879 879 879 879 879 879 878 878 877 877 876 875 875 876 875 875 875 874 874 874 873 873 873 873 873 873 873 873 873 873 873 873 873 873 872 872 871 871 870 870 869 868 868 867 866 866 865 864 863 862 861 860 859 858 857 856 855 853 852 850 849 848 846 845 844 843 842 841 840 839 838 837 836
875 876 877 877 878 878 878 878 879 879 879 879 879 879 879 879 879 879 878 878 878 877 876 875 875 876 875 875 875 874 874 873 873 873 873 873 873 873 873 873 873 873 873 873 873 872 872 872 871 870 870 869 869 868 867 866 866 865 864 863 862 861 860 859 858 857 856 855 853 852 850 849 847 846 845 843 842 841 840 840 839 838 837 835 834
876 876 877 877 878 878 878 879 879 879 879 879 879 880 879 879 879 879 879 878 878 877 876 876 876 876 875 875 874 874 873 873 873 873 873 873 872 872 872 872 873 873 873 872 872 872 872 871 871 870 870 869 868 867 867 866 865 864 863 862 861 860 859 858 857 856 855 853 852 850 849 847 846 844 843 841 840 839 838 838 837 836 835 834 833
876 876 877 878 878 878 878 879 879 879 879 879 880 880 880 880 879 879 879 878 878 877 877 876 876 876 875 875 874 873 873 873 873 873 873 873 872 872 872 872 872 872 872 872 872 871 871 870 870 870 869 868 867 867 866 865 864 864 863 862 861 860 859 858 856 855 853 852 851 849 848 846 844 843 841 840 838 837 836 836 835 834 833 832 831
876 877 877 877 878 878 878 879 879 879 879 880 880 880 880 880 880 879 879 879 878 877 877 876 876 876 876 876 876 875 875 873 873 873 873 872 872 871 871 871 872 872 871 871 871 871 870 870 869 869 868 867 867 866 865 865 864 863 862 861 860 859 858 857 855 854 852 851 849 848 846 845 843 841 839 838 837 836 835 834 833 832 831 830 829
876 876 877 877 878 878 878 879 879 879 880 880 880 881 881 881 880 880 879 879 879 878 877 877 877 876 877 877 876 877 879 876 873 873 873 872 872 871 871 871 871 871 871 871 870 870 869 869 868 867 867 866 865 865 864 864 863 862 861 860 859 858 857 856 854 853 851 850 848 846 845 843 841 840 838 836 835 834 833 832 831 830 829 828 827
876 876 877 877 877 878 878 879 879 879 880 880 881 881 881 881 881 880 880 880 879 879 878 877 877 876 876 877 877 880 880 875 874 874 873 872 872 871 871 871 871 871 871 870 870 869 869 868 867 866 865 865 864 864 864 863 862 862 861 859 858 857 856 855 853 852 850 849 847 846 844 842 840 839 837 835 834 832 831 830 829 828 827 826 825
875 876 876 877 877 878 878 879 879 880 880 880 881 881 882 882 881 881 881 880 880 879 879 878 877 877 876 876 877 879 878 875 876 877 874 873 873 872 872 871 871 871 871 870 870 870 869 868 867 866 865 864 863 863 863 863 862 861 860 859 858 857 855 854 853 851 850 848 847 845 843 842 840 838 836 834 833 831 830 828 827 826 825 824 823
875 876 876 876 877 878 878 879 879 880 880 881 881 882 882 882 882 882 882 881 880 880 879 879 878 877 877 876 876 877 876 876 877 878 877 876 873 873 873 872 872 871 871 871 870 870 869 868 867 866 864 863 863 863 863 862 862 860 859 858 857 856 855 854 853 851 850 848 847 845 843 841 840 838 836 834 832 830 829 827 825 824 823 822 822
875 875 876 876 877 877 878 878 879 880 880 881 881 882 882 882 882 882 882 881 881 880 880 879 879 878 877 877 877 877 877 877 876 877 878 877 875 873 873 872 872 872 871 871 871 870 869 868 867 866 864 863 863 863 863 862 861 860 859 858 857 856 855 854 852 851 850 848 846 845 843 841 839 838 836 834 832 830 828 826 824 823 822 821 820
874 875 875 876 876 877 878 878 879 880 880 881 881 882 882 882 882 882 882 882 882 881 881 880 879 879 878 878 878 877 877 877 877 876 876 877 876 873 872 873 872 872 872 871 871 870 869 869 868 866 865 864 863 863 862 862 861 860 859 858 857 856 855 853 852 851 850 848 847 845 843 841 839 837 835 833 831 829 827 826 824 822 821 819 818
873 874 875 875 876 877 877 878 879 879 880 881 881 881 882 882 882 882 882 882 882 882 881 881 880 880 879 878 878 878 878 877 877 876 875 876 876 873 872 873 872 872 872 872 871 871 870 870 869 867 866 865 864 863 863 862 861 860 859 858 857 855 854 853 852 851 849 848 846 845 843 841 839 837 835 833 831 829 827 825 823 821 820 818 817
873 874 874 875 876 876 877 878 878 879 880 880 881 881 882 882 882 882 882 882 882 882 881 881 881 880 880 879 879 878 878 877 877 877 876 875 875 874 873 873 873 872 872 872 871 871 871 870 869 868 867 866 865 864 863 862 861 860 859 858 856 855 854 853 852 850 849 848 846 844 843 841 838 836 834 832 829 827 825 824 822 820 819 817 816
872 873 874 875 875 876 877 877 878 878 879 880 880 881 881 881 881 882 882 882 881 881 882 882 881 881 880 880 880 879 878 878 877 877 877 876 876 875 873 874 873 872 872 872 871 871 870 870 869 868 867 866 865 864 863 862 861 860 859 858 856 855 854 852 851 850 849 847 846 844 842 840 838 835 833 830 828 826 824 822 820 819 818 816 815
872 872 873 874 875 875 876 877 877 878 878 879 880 880 880 881 881 881 881 881 881 881 881 881 881 881 881 880 880 879 879 878 878 877 877 877 876 875 874 874 873 872 872 872 871 871 870 869 869 868 867 866 865 864 863 862 861 860 859 857 856 854 853 852 851 850 848 847 845 843 841 839 837 834 832 829 827 825 823 821 819 817 816 815 814
871 872 873 874 874 875 875 876 876 877 878 878 879 879 880 880 880 880 880 880 880 880 881 881 881 880 880 880 879 879 879 879 878 878 877 876 876 875 875 874 873 872 872 872 871 870 870 869 868 868 867 866 865 864 863 862 861 859 858 857 855 854 853 852 851 849 848 846 844 842 840 838 836 834 831 829 826 824 822 820 818 817 815 815 813
870 871 872 873 874 874 875 875 876 876 877 877 878 878 879 879 879 879 880 880 879 880 880 880 880 880 879 879 879 879 878 878 878 877 877 876 876 875 875 874 874 872 871 871 870 870 869 869 868 868 867 866 865 864 863 862 861 859 858 856 855 854 853 852 850 849 847 846 844 842 840 838 835 833 831 828 826 824 822 820 818 816 815 814 813
869 870 871 872 873 873 874 875 875 875 876 876 877 877 878 878 878 878 879 879 878 878 879 879 878 878 878 878 878 878 877 877 877 877 877 876 876 876 875 874 875 875 872 871 870 869 869 868 867 868 867 866 865 864 862 862 860 859 858 857 855 854 853 851 850 848 847 845 843 841 839 837 835 833 830 828 826 824 822 820 818 816 815 814 812
869 869 870 871 872 872 873 874 874 875 875 875 876 876 877 877 877 877 878 878 878 877 877 877 877 877 877 877 876 876 876 876 876 876 875 875 875 875 874 873 874 874 874 874 871 868 868 868 867 867 866 865 864 863 862 861 860 859 858 857 855 854 853 851 850 848 846 844 842 840 838 836 834 832 830 828 826 824 822 820 818 817 815 813 812
868 868 869 870 871 871 872 873 873 874 874 875 875 875 876 876 876 877 877 877 877 876 876 876 876 876 876 876 876 875 875 875 875 875 874 874 874 873 873 873 872 872 872 873 871 868 867 867 866 866 866 865 864 863 862 861 860 858 857 856 855 854 852 851 849 848 846 844 842 840 838 836 834 832 830 828 826 824 822 820 819 817 815 814 812
866 867 868 869 870 870 871 872 872 873 873 873 874 874 875 875 875 876 876 876 876 875 875 875 875 875 875 875 875 874 874 874 874 874 874 873 873 872 872 872 872 871 870 871 870 868 867 866 865 865 865 864 864 863 862 861 859 858 857 855 854 853 851 850 849 847 845 843 841 839 837 835 834 832 829 827 826 824 822 820 819 817 815 814 812
865 866 867 868 869 869 870 871 871 871 872 872 873 873 874 874 874 875 875 875 875 874 875 875 874 874 874 874 874 873 874 873 873 873 873 872 872 871 871 871 870 870 869 869 869 867 866 866 865 864 864 864 863 862 861 860 859 857 856 854 853 852 851 850 848 846 845 843 841 839 837 835 833 831 829 827 825 824 822 820 819 817 815 814 812
864 865 866 866 867 868 869 869 869 870 870 871 872 872 872 873 873 873 873 873 873 873 873 873 873 873 873 873 873 872 872 872 872 872 871 871 871 870 870 870 869 869 868 868 867 866 865 865 864 864 863 863 862 861 860 859 858 857 855 854 852 851 850 849 848 846 844 842 840 838 837 835 833 831 829 827 825 823 822 820 818 817 815 814 812
863 863 864 865 866 866 867 868 868 869 869 869 870 871 871 871 872 872 872 872 872 872 872 872 872 872 872 871 871 871 871 871 871 871 870 870 869 869 869 869 868 868 868 867 867 866 865 864 864 863 863 862 862 861 860 859 858 856 855 854 852 851 850 848 847 846 844 842 840 838 836 834 833 831 829 827 825 824 822 820 818 817 815 813 812
861 862 863 863 864 865 865 866 866 867 868 868 869 869 869 870 870 871 871 871 871 871 871 871 871 871 871 870 870 870 870 870 869 869 869 869 869 868 868 868 867 867 867 866 866 865 864 864 863 863 862 861 861 860 859 858 857 856 854 853 852 851 850 848 847 846 843 841 840 838 836 834 833 831 829 827 826 824 822 820 818 816 815 813 812
860 860 861 862 862 863 863 864 865 865 866 866 867 867 868 868 868 869 869 869 869 869 869 869 869 869 869 869 869 869 869 868 868 868 868 868 868 867 867 867 866 866 865 865 865 864 864 863 862 862 861 860 860 859 858 857 856 855 854 853 852 850 849 848 846 845 843 841 839 838 836 834 832 831 829 828 826 824 822 821 819 817 815 813 812
858 859 859 860 861 861 862 862 863 863 864 865 865 866 866 867 867 867 867 867 867 868 868 868 867 868 867 867 867 867 867 867 867 867 867 866 866 866 866 865 865 864 864 863 863 863 862 862 861 860 860 859 858 858 857 856 855 854 852 851 851 849 848 847 845 844 842 841 839 838 836 835 833 831 830 828 827 825 823 821 820 818 816 814 812
856 857 858 858 859 859 860 861 862 862 863 863 864 864 865 865 866 866 866 866 866 866 866 866 866 866 866 866 866 866 866 866 866 865 865 865 865 864 864 863 863 862 862 861 861 861 861 860 859 859 858 858 857 856 856 855 854 853 852 850 849 848 847 846 844 843 842 840 839 838 836 835 833 832 830 829 827 826 824 822 820 818 817 815 813
855 855 856 857 857 858 859 859 860 861 861 862 862 862 863 864 864 864 865 865 865 865 865 865 865 864 864 864 864 864 864 864 864 864 864 864 863 863 862 862 862 861 861 860 860 859 859 858 858 857 856 856 856 855 854 853 853 852 851 850 849 848 847 845 844 842 841 840 838 837 836 835 834 833 831 830 828 826 825 823 821 819 817 815 813
853 854 855 855 856 856 857 858 858 859 859 860 860 861 861 862 862 863 863 863 863 863 863 863 863 863 863 863 863 863 863 863 863 863 863 862 862 861 861 861 860 860 860 859 859 858 857 857 856 855 855 855 854 854 853 852 852 851 851 850 848 847 846 845 844 842 841 840 838 837 836 835 834 833 832 830 829 827 825 823 821 819 818 816 814
852 853 853 854 855 855 855 856 856 857 857 858 858 859 859 860 860 861 861 861 861 862 861 861 861 861 861 861 861 861 861 861 861 861 861 861 860 860 860 859 859 859 858 858 858 857 856 856 855 854 854 853 852 852 852 851 851 850 850 849 848 847 846 845 843 842 841 840 839 837 836 835 834 833 832 831 830 828 826 824 822 820 818 817 815
850 851 852 852 853 853 854 854 855 855 855 855 856 856 857 858 858 859 859 859 859 860 859 859 859 859 859 859 859 859 859 859 859 859 859 859 859 859 858 858 858 857 857 857 857 856 856 855 854 853 852 851 851 851 851 850 850 849 849 848 847 846 845 844 843 842 840 840 838 837 837 836 834 833 832 832 830 828 826 824 823 822 820 818 816
848 849 850 851 851 852 852 852 853 853 853 853 853 854 855 855 856 857 857 857 857 857 858 858 857 857 857 857 857 857 857 857 857 857 857 857 857 857 856 856 856 856 856 856 856 855 855 854 853 852 851 850 850 850 850 849 849 848 848 847 846 845 844 843 842 841 840 839 839 838 837 836 835 833 832 831 830 828 827 826 824 823 821 819 817
846 847 848 849 849 850 850 851 851 851 851 851 851 852 853 853 854 854 854 855 855 855 856 856 856 855 855 855 855 855 855 855 855 855 855 855 855 855 855 855 855 854 854 854 854 854 854 853 853 852 851 850 849 849 849 848 848 848 847 846 846 845 844 843 842 841 840 839 839 838 837 836 835 834 832 831 830 828 827 827 825 824 822 820 819
844 845 846 846 847 848 848 848 848 849 849 849 849 850 851 851 851 852 852 852 853 853 852 853 853 853 852 852 852 853 852 852 853 853 853 853 853 853 853 853 853 853 852 852 852 853 853 852 852 851 850 850 849 849 848 848 847 847 846 846 845 844 843 843 842 842 840 839 839 838 837 836 836 834 833 832 831 829 828 827 826 824 823 821 820
842 842 843 844 845 845 846 846 846 846 847 847 847 848 848 849 849 849 849 850 850 850 850 850 850 850 849 849 849 850 850 850 850 851 851 851 851 851 851 851 851 851 850 850 850 850 851 851 851 850 850 849 849 848 848 847 847 846 845 845 844 844 843 843 842 841 840 839 840 839 837 836 836 835 833 833 832 830 829 828 827 825 823 822 821
840 840 840 841 842 843 843 844 844 845 845 845 845 846 846 847 847 847 847 848 848 847 847 847 847 846 846 846 847 848 848 848 848 848 849 849 849 849 849 849 849 849 848 848 848 848 848 849 849 849 849 848 848 848 847 847 846 846 845 844 844 843 843 842 841 841 840 839 839 839 837 836 835 834 833 833 833 832 830 829 827 826 824 823 821
838 838 838 839 839 840 841 841 842 843 842 842 843 843 844 845 845 845 845 846 846 845 845 845 844 844 844 845 845 845 846 845 845 846 846 847 847 848 848 848 848 847 846 846 846 846 846 846 847 847 847 847 847 847 847 846 846 845 845 844 843 843 842 841 840 840 839 839 839 839 838 836 835 834 833 832 832 831 830 829 828 826 825 824 822
837 836 836 837 837 837 838 839 840 840 840 840 841 841 842 842 843 843 843 843 843 843 843 843 842 842 842 842 842 843 843 843 843 843 843 844 844 845 845 845 845 845 845 844 844 844 844 845 845 845 845 846 846 846 846 846 846 845 845 844 843 842 841 841 840 839 839 839 839 838 838 836 835 834 833 831 830 830 829 829 827 826 825 824 822
838 838 836 835 835 835 835 837 838 838 838 838 839 839 839 840 841 841 841 842 842 842 841 841 841 841 840 840 840 841 841 840 840 840 841 841 841 842 842 842 842 843 843 842 842 842 843 843 844 844 845 845 845 845 845 845 845 845 844 843 843 842 841 841 840 839 838 839 839 838 837 836 836 835 834 831 830 829 829 828 827 827 826 824 823
838 839 836 833 833 834 834 835 836 837 837 837 838 838 838 839 839 839 840 840 840 840 840 840 840 840 839 838 838 839 839 838 839 839 839 839 839 839 840 840 840 839 839 839 839 839 840 841 842 844 845 845 844 844 845 845 845 844 844 843 842 842 841 841 840 839 838 838 839 839 838 837 836 835 834 832 830 828 828 828 828 827 826 825 824